www.pogodaiklimat.ru

Погода и климат >> Архив погоды >> Монголия >> Мандалгоби


ПОГОДА в Мандалгоби

  • Прогноз погоды в Мандалгоби
  • Монитор погоды в Мандалгоби

АРХИВ ПОГОДЫ в Мандалгоби

Время (UTC), дата Ветер
(напр.,м/с)
 
Видим.   Явления Облачность Т
(С)
Тd
(С)
f
(%)
Тe
(С)
Тes
(С)
Комфортность P
(гПа)
Po
(гПа)
Тmin
(С)
Tmax
(С)
R
(мм)
R24
(мм)
S
(см)
12 12.08 СВ 6 50 км 3/3 600 м
[Cb calv Ac lent]
+20.1 +8.4 47 +21 +21 комфорт 1007.5 856.6 +23.1 0.0
15 12.08 СВ 6 н/о зарница 3/3 600 м
[Cb calv]
+16.5 +9.9 65 +15 +15 1010.9 857.8
18 12.08 СВ 4 н/о 3/3 1000 м
[Sc]
+14.6 +9.4 71 +13 +13 1011.6 857.5
21 12.08 СВ 5 н/о 1/1 1000 м
[Sc]
+13.2 +9.1 76 +11 +11 1011.6 856.8
00 13.08 В 4 50 км 3/3 1000 м
[Sc]
+16.8 +6.6 51 +16 +18 1009.9 857.2 +12.9
03 13.08 ЮВ 4 50 км 4/4 1000 м
[Cb calv]
+21.5 +7.3 40 +22 +28 комфорт 1007.4 857.3
06 13.08 Ю 6 50 км 4/4 1000 м
[Cb calv]
+25.7 +7.8 32 +26 +29 жарко 1002.7 855.1
09 13.08 СЗ 6 50 км 8/5 1000 м
[Cb calv Ac As]
+26.5 +4.3 24 +25 +26 комфорт 1000.5 853.6
12 13.08 СВ 8 50 км 4/3 1000 м
[Cb calv Ac lent]
+21.3 +7.9 42 +22 +22 комфорт 1004.4 854.6 +27.8
15 13.08 В 4 н/о 8/0
[Cs]
+17.2 +9.1 59 +17 +17 1007.3 855.1
18 13.08 СВ 3 н/о 4/4 1000 м
[Sc]
+15.9 +8.4 61 +16 +16 1007.8 855.0
21 13.08 В 6 н/о 3/3 1000 м
[Sc]
+13.8 +8.8 72 +12 +12 1008.7 854.7
00 14.08 В 6 50 км 5/1 1000 м
[Sc Ci]
+17.1 +6.6 50 +16 +17 1005.7 853.7 +13.4
03 14.08 В 4 50 км 3/0
[Ci]
+22.6 +4.6 31 +23 +31 комфорт 1002.9 854.0
06 14.08 В 3 50 км 3/3 1000 м
[Cu hum]
+26.0 +5.6 27 +25 +34 комфорт 1000.4 853.2
09 14.08 Ю 1 50 км 5/5 1000 м
[Cu med, cong]
+25.3 +5.0 27 +25 +28 комфорт 999.0 851.8
12 14.08 С 8 50 км 5/3 1000 м
[Cu med, cong Cs]
+22.0 +3.2 29 +22 +22 комфорт 1001.6 852.6 +27.3
15 14.08 В 4 н/о 8/8 1000 м
[Sc]
+16.7 +8.4 58 +16 +16 1004.7 852.6
18 14.08 С 2 н/о {ливн. осадки} 6/6 1000 м
[Sc]
+14.7 +9.1 69 +14 +14 1007.0 853.7
21 14.08 С 4 н/о 10/10 600 м
[Cb cap]
+12.0 +7.5 74 +10 +10 1009.6 854.5
00 15.08 С 13 50 км 5/5 600 м
[Cb calv]
+11.6 +5.9 68 +7 +7 1010.3 855.0 +10.8 1
03 15.08 С 13 50 км 9/9 600 м
[Sc]
+13.0 +4.7 57 +9 +9 1011.9 856.9
06 15.08 С 11 50 км в посл. час ливневой дождь 10/10 600 м
[Cb calv]
+13.6 +6.2 61 +11 +11 1011.9 857.3
09 15.08 СВ 7 50 км 8/8 600 м
[Cb calv]
+17.2 +4.5 43 +16 +17 1010.0 857.4
12 15.08 С 8 50 км 6/6 600 м
[Cb calv]
+14.5 +5.8 56 +12 +12 1012.7 858.4 +17.4 0.0
15 15.08 С 6 н/о 1/0
[Ci]
+12.2 +6.5 68 +10 +10 1014.8 859.0
18 15.08 С 6 н/о 8/0
[Cs]
+10.9 +5.8 71 +8 +8 1015.2 858.7
21 15.08 СВ 5 н/о 9/0
[Ac As]
+10.0 +5.8 75 +7 +7 1015.7 858.6
00 16.08 СВ 4 50 км 1/0
[Ac cast]
+11.8 +5.9 67 +10 +12 1015.1 859.1 +9.5
03 16.08 СЗ 1 50 км 3/3 1000 м
[Cu med, cong]
+17.2 +3.8 41 +18 +29 1011.7 858.9
06 16.08 СЗ 3 50 км 5/5 1000 м
[Cu med, cong]
+19.4 +1.8 31 +20 +26 1009.0 857.6
09 16.08 С 4 50 км 4/1 1000 м
[Cu med, cong Ci]
+20.5 +1.4 28 +21 +24 комфорт 1007.4 856.8
12 16.08 СВ 3 50 км 9/0
[Cs]
+17.9 +1.8 34 +18 +18 1009.1 856.9 +20.9
15 16.08 СВ 3 н/о 9/0
[Cs]
+14.0 +3.2 48 +13 +13 1011.8 857.4
18 16.08 СВ 1 н/о 8/0
[Cs]
+12.2 +5.1 62 +12 +12 1012.5 857.0
21 16.08 СВ 1 н/о 8/0
[Cs]
+11.0 +3.8 61 +11 +11 1012.8 856.7
00 17.08 штиль 0 50 км 9/0
[Ac cast Cs]
+15.5 +3.9 46 +15 +18 1009.8 856.4 +10.4
03 17.08 Ю 5 50 км 3/0
[Ac trans]
+21.3 +2.1 28 +21 +27 комфорт 1005.3 855.4
06 17.08 Ю 4 50 км 8/0
[Ac lent Cs]
+24.8 +2.3 23 +24 +31 комфорт 1001.7 853.9
09 17.08 З 3 50 км 8/5 1000 м
[Cu med, cong Ac lent]
+25.4 +2.8 23 +24 +25 комфорт 1000.1 852.9
12 17.08 С 3 50 км 3/3 1000 м
[Sc Ac lent]
+22.9 +5.8 33 +23 +23 комфорт 1001.7 853.0 +27.0
15 17.08 С 3 н/о 1/0
[Ac trans]
+19.0 +6.8 45 +20 +20 1005.2 854.2
18 17.08 СЗ 6 н/о 1/0
[Ac trans]
+17.8 +7.5 51 +17 +17 1006.6 854.8
21 17.08 СВ 6 н/о 8/0
[Ac lent Cs]
+14.8 +7.8 63 +13 +13 1008.6 855.1
00 18.08 СВ 6 50 км 10/3 1000 м
[Sc Ac As Cs]
+15.6 +6.9 56 +14 +15 1010.1 856.7 +14.5
03 18.08 СВ 5 50 км 10/4 1000 м
[Sc Cs]
+19.8 +4.7 37 +20 +23 1009.0 857.8
06 18.08 С 5 50 км 9/0
[Ac cast Cs]
+21.9 +3.6 30 +22 +27 комфорт 1007.0 857.1
09 18.08 СВ 5 50 км 4/0
[Ac cast Ci]
+22.2 +4.7 32 +22 +25 комфорт 1006.1 856.4
12 18.08 СВ 5 50 км 8/3 1000 м
[Sc Ac lent Ci]
+18.9 +5.4 41 +19 +19 1008.1 856.7 +23.2
15 18.08 В 5 н/о 10/8 1000 м
[Sc Ac trans Ci fib]
+16.3 +6.2 51 +15 +15 1009.9 856.9
18 18.08 В 3 н/о 10/10 1000 м
[Sc]
+15.8 +6.2 53 +15 +15 1010.4 857.0
21 18.08 В 2 н/о 10/10 1000 м
[Sc]
+14.4 +9.7 73 +14 +14 1010.0 856.9
00 19.08 Ю 2 50 км слаб. ливневой дождь 10/10 600 м
[Sc]
+14.8 +8.5 66 +15 +15 1010.0 856.2 +14.0 0.0
03 19.08 Ю 5 50 км слаб. ливневой дождь 10/10 1000 м
[Sc]
+17.7 +8.3 54 +17 +17 1008.8 856.6
06 19.08 Ю 8 50 км {ливн. осадки, дождь} 10/10 1000 м
[Sc]
+19.5 +10.2 55 +20 +20 1005.8 854.9
09 19.08 Ю 8 50 км 10/6 1000 м
[Sc Ac trans]
+20.9 +9.5 48 +22 +22 комфорт 1004.0 854.0

 

Местоположение метеостанции Мандалгоби (Монголия): широта 45.77 долгота 106.28 высота над уровнем моря 1393 м.

В архиве по умолчанию представлена погода в Мандалгоби за последнюю неделю. Архивные данные за месяц целиком и за предыдущие месяцы, начиная с января 2011 года, Вы можете получить, выбрав интересующий диапазон дат из раскрывающегося списка и нажав кнопку "Ввод!".


*Определитесь, кто Вы:
робот инопланетянин человек

Внимание! Время в таблицах - всемирное. Для получения местного времени необходимо прибавить поправку, которая равна 8 ч.

Смотрите также архив погоды в соседних городах и на ближайших метеорологических станциях:

Погода на Баян Добо Сума (Монголия) (151 км)
Погода в Чойре (Монголия) (167 км)
Погода в Цогт-Овоо (Монголия) (168 км)
Погода в Сайкхан-Ову (Монголия) (189 км)
Погода в Маанти (Монголия) (193 км)
Погода в Бат Олжий Вунд (Монголия) (232 км)
Погода в Улан-Батор аэропорту (Монголия) (235 км)
Погода в Улан-Баторе (Монголия) (243 км)
Погода в Арвайхээре (Монголия) (276 км)
Погода в Даланзадгаде (Монголия) (285 км)

Пояснения к столбцам:

Ветер - указаны скорость ветра в м/с - средняя за 10 мин, порывы в срок и между сроками (в фигурных скобках) и направление, откуда дует ветер: С - северный, СВ - северо-восточный, В - восточный, ЮВ - юго-восточный, Ю - южный, ЮЗ - юго-западный, З - западный, СЗ - северо-западный.
Видимость - горизонтальная дальность видимости в метрах или километрах. При видимости от 1 до 10 км при отсутствии осадков обычно наблюдается дымка, при ухудшении видимости до 1 км и менее - туман. В сухую погоду видимость может ухудшаться дымом, пылью или мглою.
Явления - указаны атмосферные явления, наблюдавшиеся в срок или в последний час перед сроком; фигурными скобками обозначены явления, наблюдавшиеся между сроками (за 1-3 часа до срока); квадратными скобками обозначены град или гололедные отложения с указанием их диаметра в мм.
Облачность - указаны через наклонную черту общая и нижняя облачность в баллах и высота нижней границы облаков в метрах; квадратными скобками обозначены формы облаков: Ci - перистые, Cs - перисто-слоистые, Cc - перисто-кучевые, Ac - высококучевые, As - высокослоистые, Sc - слоисто-кучевые, Ns - слоисто-дождевые, Cu - кучевые, Cb - кучево-дождевые. Подробнее классификацию облаков см. в Атласе облаков (PDF).
T - Температура воздуха - температура, измеренная на высоте 2 м над землей.
Td - Температура точки росы - температура, при понижении до которой содержащийся в воздухе водяной пар достигнет насыщения.
f - Относительная влажность воздуха - влажноcть воздуха, измеренная на высоте 2 м над землей.
Te - Эффективная температура - температура, которую ощущает одетый по сезону человек в тени. Характеристика душности погоды. При расчете учитывается влияние влажности воздуха и скорости ветра на теплоощущения человека.
Tes - Эффективная температура на солнце - температура, которую ощущает человек, с поправкой на солнечный нагрев. Характеристика знойности погоды. Зависит от высоты солнца над горизонтом, облачности и скорости ветра. Ночью, в пасмурную погоду, а также при ветре 12 м/с и более поправка равна нулю.
P - Атмосферное давление - приведенное к уровню моря атмосферное давление.
Po - Атмосферное давление - измеренное на уровне метеостанции атмосферное давление.
Tmin - Минимальная температура - минимум температуры воздуха на высоте 2 м над землей.
Tmax - Максимальная температура - максимум температуры воздуха на высоте 2 м над землей.
R - Количество осадков - Количество выпавших осадков за период времени, мм. При наведении курсора мыши на число - период времени, за который выпало указанное количество осадков.
R24 - Количество осадков - Количество выпавших осадков за 24 часа, мм.
S - Снежный покров - Высота снежного покрова, см. При наведении курсора мыши на число - состояние снежного покрова и степень покрытия местности в баллах.